Weather History for Wilmington, OH

Change the Weather History Date:

Wednesday, May 22, 2013

  Actual Average (KDAY) Record (KDAY)
Temperature  
Mean Temperature 70 °F 63 °F  
Max Temperature 80 °F 73 °F 92 °F (1902)
Min Temperature 61 °F 53 °F 34 °F (2002)
Degree Days  
Heating Degree Days 0 4  
Month to date heating degree days 139  
Since 1 July heating degree days 5590  
Cooling Degree Days 5 2  
Month to date cooling degree days 32  
Year to date cooling degree days 42  
Growing Degree Days 20 (Base 50)    
Moisture  
Dew Point 62 °F    
Average Humidity 78    
Maximum Humidity 96    
Minimum Humidity 54    
Precipitation  
Precipitation 0.03 in 0.15 in 1.68 in (1903)
Month to date precipitation 3.29  
Year to date precipitation 15.67  
Snow  
Snow 0.00 in 0.00 in 0.00 in ()
Month to date snowfall 0.0  
Since 1 July snowfall 23.3  
Snow Depth -    
Sea Level Pressure  
Sea Level Pressure 29.80 in    
Wind  
Wind Speed 11 mph (SSW)    
Max Wind Speed 21 mph    
Max Gust Speed 29 mph    
Visibility 10 miles    
Events Rain , Thunderstorm    
T = Trace of Precipitation, MM = Missing Value Source: NWS Daily Summary

Daily Weather History Graph

Daily Weather History Graph

Search for Another Location

Airport:

Trip Planner

Search our weather history database for the weather conditions in past years. The results will help you decide how hot, cold, wet, or windy it might be!

Date:

Astronomy

May. 22, 2013 Rise Set
Actual Time 6:15 AM EDT 8:48 PM EDT
Civil Twilight 5:44 AM EDT 9:19 PM EDT
Nautical Twilight 5:06 AM EDT 9:58 PM EDT
Astronomical Twilight 4:23 AM EDT 10:41 PM EDT
Moon 6:10 PM EDT (5/22) 4:18 AM EDT (5/22)
Length of Visible Light 15h 35m
Length of Day
14h 33m
Waxing Gibbous, 91% of the Moon is Illuminated
May 22
Waxing Gibbous
May 25
Full
May 31
Last Quarter
Jun 8
New
Jun 16
First Quarter

Hourly Weather History & Observations

Time (EDT) Temp. Dew Point Humidity Pressure Visibility Wind Dir Wind Speed Gust Speed Precip Events Conditions
12:54 AM 66.0 °F 61.0 °F 84% 29.85 in 10.0 mi South 11.5 mph - N/A   Clear
1:54 AM 66.0 °F 61.0 °F 84% 29.83 in 10.0 mi South 6.9 mph - N/A   Mostly Cloudy
2:54 AM 64.9 °F 61.0 °F 87% 29.81 in 10.0 mi South 8.1 mph - N/A   Clear
3:54 AM 64.0 °F 60.1 °F 87% 29.80 in 10.0 mi South 10.4 mph - N/A   Clear
4:54 AM 63.0 °F 60.1 °F 90% 29.80 in 10.0 mi South 8.1 mph - N/A   Clear
5:54 AM 61.0 °F 59.0 °F 93% 29.82 in 10.0 mi SSW 4.6 mph - N/A   Clear
6:54 AM 62.1 °F 60.1 °F 93% 29.83 in 10.0 mi South 4.6 mph - N/A   Clear
7:54 AM 66.0 °F 61.0 °F 84% 29.83 in 10.0 mi South 10.4 mph - N/A   Clear
8:54 AM 69.1 °F 62.1 °F 78% 29.82 in 10.0 mi South 12.7 mph - N/A   Scattered Clouds
9:54 AM 71.1 °F 62.1 °F 73% 29.83 in 10.0 mi SW 13.8 mph - N/A   Mostly Cloudy
10:54 AM 73.0 °F 62.1 °F 68% 29.82 in 10.0 mi SSW 16.1 mph 24.2 mph N/A   Partly Cloudy
11:54 AM 75.0 °F 62.1 °F 64% 29.82 in 10.0 mi SSW 17.3 mph 23.0 mph N/A   Partly Cloudy
12:54 PM 75.0 °F 61.0 °F 62% 29.81 in 10.0 mi SSW 15.0 mph 20.7 mph N/A   Clear
1:54 PM 79.0 °F 61.0 °F 54% 29.78 in 10.0 mi South 16.1 mph 20.7 mph N/A   Clear
2:54 PM 77.0 °F 61.0 °F 58% 29.79 in 10.0 mi South 17.3 mph 26.5 mph N/A   Mostly Cloudy
3:54 PM 78.1 °F 62.1 °F 58% 29.77 in 10.0 mi SSW 20.7 mph 28.8 mph N/A   Clear
4:54 PM 78.1 °F 61.0 °F 56% 29.74 in 10.0 mi SSW 19.6 mph 25.3 mph N/A   Mostly Cloudy
5:54 PM 75.0 °F 61.0 °F 62% 29.75 in 10.0 mi SSW 15.0 mph - N/A   Clear
6:54 PM 73.0 °F 62.1 °F 68% 29.75 in 10.0 mi South 10.4 mph - N/A   Mostly Cloudy
7:54 PM 72.0 °F 62.1 °F 71% 29.77 in 10.0 mi SW 9.2 mph - N/A   Mostly Cloudy
8:18 PM 69.8 °F 64.4 °F 83% 29.80 in 7.0 mi SW 8.1 mph - 0.02 in Rain , Thunderstorm Light Rain
8:54 PM 66.0 °F 64.0 °F 93% 29.78 in 10.0 mi SSW 5.8 mph - 0.03 in Rain , Thunderstorm Light Rain
9:06 PM 66.2 °F 64.4 °F 94% 29.80 in 10.0 mi South 4.6 mph - 0.00 in   Overcast
9:54 PM 66.0 °F 64.0 °F 93% 29.78 in 10.0 mi South 6.9 mph - 0.00 in   Mostly Cloudy
10:54 PM 64.0 °F 63.0 °F 96% 29.79 in 10.0 mi SSW 4.6 mph - N/A   Clear
11:54 PM 64.0 °F 63.0 °F 96% 29.79 in 9.0 mi SSW 9.2 mph - N/A   Clear